EXS9AR LGSK-EGNM

Flight info

Callsign EXS9AR
Flight time N/A
Altitude 40000
Route IBIDI UL617 AMSIV DCT MAKED DCT LONTA UL608 DOLEV DCT RENKA DCT GASKA DCT MASEK DCT OTMEC DCT PAM DCT RAVLO Y70 BATLI DCT LBA
Aircraft B738/M-SDE2E3FGHIRWXY/LB1

Departure

Time N/A
Airport Skiathos Island National Airport (LGSK)

Arrival

Time 2026-05-05 17:18
Airport Leeds Bradford Airport (EGNM)
Time Latitude Longitude Altitude Speed Heading
2026-05-05 16:07 50.72188 9.61105 39781 ft 439 kts 306°
2026-05-05 16:07 50.74010 9.57267 39782 ft 435 kts 298°
2026-05-05 16:08 50.77126 9.49100 39781 ft 434 kts 296°
2026-05-05 16:08 50.80168 9.40867 39788 ft 434 kts 296°
2026-05-05 16:09 50.82740 9.33966 39792 ft 435 kts 297°
2026-05-05 16:09 50.85840 9.25716 39797 ft 437 kts 297°
2026-05-05 16:10 50.88937 9.17488 39798 ft 439 kts 297°
2026-05-05 16:10 50.92065 9.09160 39797 ft 441 kts 297°
2026-05-05 16:11 50.95199 9.00785 39795 ft 442 kts 297°
2026-05-05 16:12 51.01480 8.83916 39805 ft 445 kts 296°
2026-05-05 16:13 51.09302 8.62753 39788 ft 442 kts 296°
2026-05-05 16:13 51.12401 8.54318 39805 ft 440 kts 296°
2026-05-05 16:14 51.18548 8.37505 39807 ft 438 kts 296°
2026-05-05 16:15 51.24640 8.20732 39819 ft 436 kts 296°
2026-05-05 16:16 51.30703 8.03927 39834 ft 437 kts 296°
2026-05-05 16:17 51.35242 7.91273 39843 ft 437 kts 296°
2026-05-05 16:18 51.39791 7.78525 39843 ft 443 kts 296°
2026-05-05 16:19 51.44353 7.65684 39859 ft 441 kts 296°
2026-05-05 16:19 51.48859 7.52934 39855 ft 439 kts 296°
2026-05-05 16:20 51.54852 7.35870 39840 ft 439 kts 296°
2026-05-05 16:22 51.62298 7.14512 39862 ft 436 kts 296°
2026-05-05 16:23 51.68190 6.97482 39858 ft 434 kts 295°
2026-05-05 16:23 51.72572 6.84741 39863 ft 433 kts 295°
2026-05-05 16:24 51.75479 6.76252 39874 ft 432 kts 295°
2026-05-05 16:25 51.79834 6.63479 39871 ft 433 kts 295°
2026-05-05 16:25 51.84188 6.50641 39884 ft 435 kts 295°
2026-05-05 16:26 51.89996 6.33419 39899 ft 437 kts 295°
2026-05-05 16:27 51.92901 6.24760 39892 ft 438 kts 295°
2026-05-05 16:27 51.95804 6.16075 39895 ft 438 kts 295°
2026-05-05 16:28 51.98702 6.07377 39892 ft 438 kts 295°
2026-05-05 16:28 52.01590 5.98675 39895 ft 438 kts 295°
2026-05-05 16:29 52.04475 5.89956 39880 ft 438 kts 295°
2026-05-05 16:29 52.07340 5.81287 39882 ft 438 kts 296°
2026-05-05 16:30 52.10430 5.72745 39883 ft 438 kts 298°
2026-05-05 16:30 52.13595 5.64266 39884 ft 438 kts 298°
2026-05-05 16:31 52.16719 5.55773 39901 ft 437 kts 298°
2026-05-05 16:31 52.19817 5.47252 39896 ft 436 kts 298°
2026-05-05 16:32 52.22895 5.38740 39903 ft 436 kts 298°
2026-05-05 16:32 52.25968 5.30214 39902 ft 435 kts 298°
2026-05-05 16:33 52.29034 5.21683 39903 ft 435 kts 298°
2026-05-05 16:33 52.32089 5.13155 39904 ft 435 kts 298°
2026-05-05 16:34 52.35048 5.04536 39907 ft 434 kts 295°
2026-05-05 16:34 52.37767 4.95720 39919 ft 434 kts 294°
2026-05-05 16:35 52.40455 4.86867 39917 ft 435 kts 294°
2026-05-05 16:35 52.43165 4.78001 39918 ft 436 kts 294°
2026-05-05 16:36 52.45887 4.69121 39912 ft 436 kts 294°
2026-05-05 16:36 52.48612 4.60219 39909 ft 437 kts 294°
2026-05-05 16:37 52.51334 4.51293 39916 ft 438 kts 294°
2026-05-05 16:37 52.54050 4.42350 39918 ft 438 kts 294°
2026-05-05 16:38 52.56712 4.33556 39923 ft 438 kts 294°
2026-05-05 16:38 52.59419 4.24574 39928 ft 438 kts 294°
2026-05-05 16:39 52.62119 4.15586 39935 ft 438 kts 294°
2026-05-05 16:39 52.64814 4.06580 39935 ft 438 kts 294°
2026-05-05 16:40 52.67498 3.97575 39949 ft 438 kts 293°
2026-05-05 16:40 52.70177 3.88554 39949 ft 438 kts 293°
2026-05-05 16:41 52.72849 3.79523 39954 ft 438 kts 293°
2026-05-05 16:41 52.75512 3.70487 39953 ft 437 kts 293°
2026-05-05 16:42 52.78163 3.61455 39964 ft 437 kts 293°
2026-05-05 16:42 52.80807 3.52418 39974 ft 437 kts 293°
2026-05-05 16:43 52.83440 3.43378 39972 ft 436 kts 293°
2026-05-05 16:43 52.86068 3.34325 39963 ft 436 kts 293°
2026-05-05 16:44 52.88685 3.25276 39966 ft 436 kts 293°
2026-05-05 16:44 52.91278 3.16210 39960 ft 435 kts 290°
2026-05-05 16:45 52.92894 3.06658 39970 ft 430 kts 279°
2026-05-05 16:45 52.94109 2.96948 39969 ft 430 kts 279°
2026-05-05 16:46 52.95338 2.87238 39961 ft 431 kts 279°
2026-05-05 16:46 52.96592 2.77520 39962 ft 431 kts 280°
2026-05-05 16:47 52.97848 2.67796 39971 ft 431 kts 280°
2026-05-05 16:47 52.98474 2.62935 39841 ft 434 kts 280°
2026-05-05 16:47 52.99105 2.58008 39458 ft 436 kts 280°
2026-05-05 16:48 52.99731 2.53105 39134 ft 433 kts 279°
2026-05-05 16:48 53.00353 2.48225 38794 ft 430 kts 279°
2026-05-05 16:48 53.00967 2.43381 38418 ft 428 kts 279°
2026-05-05 16:48 53.01569 2.38616 38009 ft 427 kts 279°
2026-05-05 16:49 53.02175 2.33799 37603 ft 425 kts 279°
2026-05-05 16:49 53.02777 2.28997 37201 ft 424 kts 279°
2026-05-05 16:49 53.03376 2.24203 36806 ft 423 kts 279°
2026-05-05 16:49 53.03971 2.19428 36420 ft 422 kts 279°
2026-05-05 16:50 53.04563 2.14660 36043 ft 421 kts 279°
2026-05-05 16:50 53.05153 2.09892 35660 ft 421 kts 279°
2026-05-05 16:50 53.05743 2.05111 35176 ft 423 kts 278°
2026-05-05 16:50 53.06332 2.00321 34810 ft 423 kts 278°
2026-05-05 16:51 53.06919 1.95539 34425 ft 422 kts 278°
2026-05-05 16:51 53.07504 1.90758 34050 ft 422 kts 278°
2026-05-05 16:51 53.08087 1.85979 33607 ft 422 kts 278°
2026-05-05 16:51 53.08667 1.81204 33180 ft 421 kts 278°
2026-05-05 16:52 53.09246 1.76421 32744 ft 421 kts 278°
2026-05-05 16:52 53.09823 1.71637 32322 ft 422 kts 278°
2026-05-05 16:52 53.10398 1.66843 31903 ft 423 kts 277°
2026-05-05 16:52 53.10975 1.62028 31493 ft 425 kts 277°
2026-05-05 16:53 53.11550 1.57205 31089 ft 426 kts 277°
2026-05-05 16:53 53.12126 1.52350 30702 ft 428 kts 277°
2026-05-05 16:53 53.12702 1.47489 30306 ft 429 kts 277°
2026-05-05 16:53 53.13278 1.42608 29897 ft 430 kts 277°
2026-05-05 16:54 53.13852 1.37720 29439 ft 430 kts 277°
2026-05-05 16:54 53.14425 1.32828 28989 ft 431 kts 277°
2026-05-05 16:54 53.14997 1.27922 28550 ft 432 kts 277°
2026-05-05 16:54 53.15568 1.23007 28111 ft 432 kts 278°
2026-05-05 16:55 53.16138 1.18087 27682 ft 433 kts 278°
2026-05-05 16:55 53.16700 1.13213 27265 ft 434 kts 278°
2026-05-05 16:55 53.17269 1.08261 26848 ft 436 kts 278°
2026-05-05 16:55 53.17838 1.03289 26438 ft 437 kts 278°
2026-05-05 16:56 53.18407 0.98301 26047 ft 439 kts 278°
2026-05-05 16:56 53.18976 0.93291 25647 ft 440 kts 278°
2026-05-05 16:56 53.19543 0.88272 25252 ft 441 kts 278°
2026-05-05 16:56 53.20109 0.83252 24864 ft 441 kts 278°
2026-05-05 16:57 53.20673 0.78234 24475 ft 439 kts 279°
2026-05-05 16:57 53.21231 0.73247 24089 ft 436 kts 279°
2026-05-05 16:57 53.21605 0.69895 23841 ft 434 kts 279°
2026-05-05 16:57 53.22154 0.64952 23436 ft 431 kts 279°
2026-05-05 16:58 53.22689 0.60120 23018 ft 428 kts 279°
2026-05-05 16:58 53.23225 0.55256 22581 ft 424 kts 279°
2026-05-05 16:58 53.23756 0.50428 22156 ft 421 kts 279°
2026-05-05 16:58 53.24280 0.45642 21734 ft 418 kts 279°
2026-05-05 16:59 53.24806 0.40820 21315 ft 415 kts 279°
2026-05-05 16:59 53.25307 0.36164 20922 ft 412 kts 279°
2026-05-05 16:59 53.25810 0.31472 20494 ft 409 kts 279°
2026-05-05 16:59 53.26308 0.26791 19971 ft 409 kts 279°
2026-05-05 17:00 53.26803 0.22136 19467 ft 406 kts 279°
2026-05-05 17:00 53.27294 0.17510 19004 ft 402 kts 279°
2026-05-05 17:00 53.27779 0.12931 18525 ft 399 kts 279°
2026-05-05 17:00 53.28257 0.08391 18018 ft 395 kts 279°
2026-05-05 17:01 53.28773 0.03910 17479 ft 392 kts 283°
2026-05-05 17:01 53.29723 -0.00342 16949 ft 390 kts 295°
2026-05-05 17:01 53.30943 -0.04382 16434 ft 388 kts 296°
2026-05-05 17:01 53.32154 -0.08398 15921 ft 386 kts 295°
2026-05-05 17:02 53.33342 -0.12388 15524 ft 381 kts 295°
2026-05-05 17:02 53.34505 -0.16342 15154 ft 377 kts 295°
2026-05-05 17:02 53.35649 -0.20263 14787 ft 373 kts 295°
2026-05-05 17:02 53.36779 -0.24158 14417 ft 371 kts 295°
2026-05-05 17:03 53.37909 -0.28059 14063 ft 375 kts 295°
2026-05-05 17:03 53.39047 -0.31995 13697 ft 376 kts 295°
2026-05-05 17:03 53.40181 -0.35922 13302 ft 371 kts 295°
2026-05-05 17:03 53.41295 -0.39782 12897 ft 364 kts 295°
2026-05-05 17:04 53.42388 -0.43574 12515 ft 360 kts 295°
2026-05-05 17:04 53.43471 -0.47337 12115 ft 356 kts 295°
2026-05-05 17:04 53.44541 -0.51061 11746 ft 352 kts 295°
2026-05-05 17:04 53.45594 -0.54731 11368 ft 345 kts 295°
2026-05-05 17:05 53.46619 -0.58311 10976 ft 336 kts 296°
2026-05-05 17:05 53.47618 -0.61813 10615 ft 329 kts 296°
2026-05-05 17:05 53.48592 -0.65234 10248 ft 321 kts 296°
2026-05-05 17:05 53.49539 -0.68563 10046 ft 311 kts 296°
2026-05-05 17:06 53.50458 -0.71791 9835 ft 302 kts 296°
2026-05-05 17:06 53.51350 -0.74936 9607 ft 294 kts 296°
2026-05-05 17:06 53.52219 -0.78003 9380 ft 287 kts 296°
2026-05-05 17:06 53.53068 -0.80994 9083 ft 282 kts 296°
2026-05-05 17:07 53.53910 -0.83953 8766 ft 279 kts 296°
2026-05-05 17:07 53.54740 -0.86871 8484 ft 275 kts 296°
2026-05-05 17:07 53.55556 -0.89745 8204 ft 271 kts 296°
2026-05-05 17:07 53.56366 -0.92602 7906 ft 269 kts 296°
2026-05-05 17:08 53.57166 -0.95425 7630 ft 266 kts 296°
2026-05-05 17:08 53.57961 -0.98230 7354 ft 264 kts 295°
2026-05-05 17:08 53.58747 -1.01013 7084 ft 263 kts 295°
2026-05-05 17:08 53.59531 -1.03792 6809 ft 262 kts 295°
2026-05-05 17:09 53.60317 -1.06579 6529 ft 265 kts 295°
2026-05-05 17:09 53.61045 -1.09451 6248 ft 269 kts 287°
2026-05-05 17:09 53.61496 -1.12491 5964 ft 266 kts 283°
2026-05-05 17:09 53.61876 -1.15533 5681 ft 264 kts 282°
2026-05-05 17:10 53.62253 -1.18546 5391 ft 262 kts 283°
2026-05-05 17:10 53.62640 -1.21528 5147 ft 259 kts 283°
2026-05-05 17:10 53.63032 -1.24460 4930 ft 254 kts 284°
2026-05-05 17:10 53.63421 -1.27333 4753 ft 249 kts 284°
2026-05-05 17:11 53.63804 -1.30148 4564 ft 245 kts 285°
2026-05-05 17:11 53.64178 -1.32908 4407 ft 236 kts 285°
2026-05-05 17:11 53.64628 -1.35459 4210 ft 226 kts 302°
2026-05-05 17:11 53.65695 -1.37348 4039 ft 219 kts 325°
2026-05-05 17:12 53.66921 -1.38821 3863 ft 220 kts 327°
2026-05-05 17:12 53.68168 -1.40262 3696 ft 213 kts 328°
2026-05-05 17:12 53.69355 -1.41642 3549 ft 201 kts 328°
2026-05-05 17:12 53.70470 -1.42948 3392 ft 190 kts 328°
2026-05-05 17:13 53.71524 -1.44189 3233 ft 180 kts 329°
2026-05-05 17:13 53.72536 -1.45382 3107 ft 174 kts 329°
2026-05-05 17:13 53.73493 -1.46515 3019 ft 162 kts 329°
2026-05-05 17:13 53.74404 -1.47593 3024 ft 158 kts 329°
2026-05-05 17:14 53.75280 -1.48710 3018 ft 158 kts 324°
2026-05-05 17:14 53.76116 -1.49921 3028 ft 159 kts 322°
2026-05-05 17:14 53.76946 -1.51180 3035 ft 161 kts 321°
2026-05-05 17:14 53.77783 -1.52469 2954 ft 164 kts 322°
2026-05-05 17:15 53.78623 -1.53767 2748 ft 164 kts 321°
2026-05-05 17:15 53.79455 -1.55054 2528 ft 159 kts 322°
2026-05-05 17:15 53.80238 -1.56265 2348 ft 144 kts 322°
2026-05-05 17:15 53.80962 -1.57381 2132 ft 140 kts 323°
2026-05-05 17:16 53.81688 -1.58499 1947 ft 141 kts 323°
2026-05-05 17:16 53.82412 -1.59617 1732 ft 140 kts 323°
2026-05-05 17:16 53.83121 -1.60713 1523 ft 138 kts 324°
2026-05-05 17:16 53.83837 -1.61814 1320 ft 140 kts 323°
2026-05-05 17:17 53.84560 -1.62913 1080 ft 139 kts 325°
2026-05-05 17:17 53.85272 -1.63999 891 ft 135 kts 322°
2026-05-05 17:17 53.85940 -1.65059 735 ft 126 kts 324°
2026-05-05 17:17 53.86531 -1.65963 665 ft 95 kts 318°
2026-05-05 17:18 53.86842 -1.66442 668 ft 40 kts 316°
2026-05-05 17:18 53.86942 -1.66577 670 ft 12 kts 358°
2026-05-05 17:18 53.86996 -1.66492 672 ft 11 kts 77°
2026-05-05 17:18 53.86973 -1.66365 669 ft 13 kts 117°
2026-05-05 17:19 53.86918 -1.66244 665 ft 12 kts 137°
2026-05-05 17:19 53.86857 -1.66150 666 ft 6 kts 137°
2026-05-05 17:19 53.86838 -1.66121 666 ft 2 kts 137°
2026-05-05 17:19 53.86828 -1.66104 666 ft 2 kts 136°
2026-05-05 17:20 53.86826 -1.66101 666 ft 2 kts 136°
2026-05-05 17:20 53.86782 -1.66070 666 ft 13 kts 163°
2026-05-05 17:20 53.86744 -1.65899 667 ft 19 kts 89°
2026-05-05 17:20 53.86742 -1.65696 664 ft 12 kts 94°
2026-05-05 17:21 53.86741 -1.65646 664 ft 0 kts 91°
2026-05-05 17:21 53.86741 -1.65644 664 ft 1 kts 91°
2026-05-05 17:21 53.86741 -1.65609 664 ft 7 kts 90°
2026-05-05 17:22 53.86804 -1.65426 660 ft 8 kts 323°
2026-05-05 17:22 53.86812 -1.65467 662 ft 3 kts 280°
2026-05-05 17:22 53.86828 -1.65481 663 ft 3 kts 353°
2026-05-05 17:22 53.86850 -1.65483 664 ft 3 kts
2026-05-05 17:23 53.86871 -1.65482 664 ft 2 kts
2026-05-05 17:23 53.86875 -1.65482 664 ft 0 kts